Flight Information

DEPARTURE
SEATTLE, WA
Elevation:
21
Runways:
14L/32R - 3709x100 - ASPH-F
14R/32L - 10007x200 - ASPH-G
Active PE Departure:
14L - 14R
Current PE ATIS:
Q
Altimeter:
30.31
Remarks:
SIMULTANEOUS APPROACHES BETWEEN BOEING FIELD AND SEATTLE INTERNATIONAL. EXPECT AIRCRAFT ABOVE YOU ON FINAL.
ATIS:
127.75 206-767-4113
Clearance Delivery:
132.4
Ground:
121.9
Tower:
BOEING TOWER 118.3(VFR FROM THE EAST) 120.6(ALL IFR)
DESTINATION
,
Elevation:
TPA:
1000 (est.)


6668.8 NM65° True-20° Var44° HDG

Flight Plan:
(click to file on line)

1. Type
2. Aircraft Identification
3. Aircraft Type / Special Equipment
4. True Airspeed
kts
5. Departure Airport
(ICAO code)
6. Arriving Airport
(ICAO code)
7. Cruising Altitude
ft
8. Alternate Airport
(ICAO code)
9. Route of Flight
10. Remarks


00:00:00 Departure ATIS: Destination ATIS:

Clearance Limit:
Route:
Altitude: Expect in minutes
Frequency:
Transponder: (7500 Hijack / 7600 Lost Comms / 7700 Emergency)


KBFI 110253Z VRB06KT 10SM BKN075 BKN090 07/M02 A3031 RMK AO2 SLP263 T00721022 52014
Time: 2021-04-11T02:53:00Z
1618111957
Winds: variable
Visibility: 10.0 sm
Clouds (AGL): BKN 7500
BKN 9000
Temperature: 7.2 C
Dew Point: -2.2 C
Pressure: 30.31004 in Hgbr


Notes:

Data extracted from FAA Digital Chart Supplement. Effective: 0901Z Thursday, Feb 25, 2021 to 0901Z Thursday, APR 22, 2021
Current ATIS data is provided courtisy of PilotEdge.